TimeMST,TemperatureF,Dew PointF,Humidity,Sea Level PressureIn,VisibilityMPH,Wind Direction,Wind SpeedMPH,Gust SpeedMPH,PrecipitationIn,Events,Conditions,WindDirDegrees,DateUTC
12:53 AM,10.9,7.0,84,30.17,10.0,ESE,15.0,-,N/A,,Clear,110,2013-03-06 07:53:00
1:53 AM,10.9,7.0,84,30.29,10.0,East,15.0,-,N/A,,Clear,100,2013-03-06 08:53:00
2:53 AM,10.9,7.0,84,30.27,10.0,East,13.8,-,N/A,,Clear,100,2013-03-06 09:53:00
3:53 AM,10.9,7.0,84,30.25,10.0,ESE,13.8,-,N/A,,Clear,110,2013-03-06 10:53:00
4:53 AM,10.9,7.0,84,30.24,10.0,ESE,15.0,-,N/A,,Clear,110,2013-03-06 11:53:00
5:53 AM,10.9,7.0,84,30.24,10.0,ESE,16.1,-,N/A,,Mostly Cloudy,110,2013-03-06 12:53:00
6:53 AM,10.9,8.1,88,30.23,10.0,East,13.8,-,N/A,,Partly Cloudy,100,2013-03-06 13:53:00
7:53 AM,14.0,10.0,84,30.21,10.0,ESE,19.6,-,N/A,,Overcast,110,2013-03-06 14:53:00
8:53 AM,16.0,10.9,81,30.17,10.0,East,21.9,-,N/A,,Clear,100,2013-03-06 15:53:00
9:53 AM,17.1,10.9,77,30.16,10.0,ESE,19.6,-,N/A,,Clear,110,2013-03-06 16:53:00
10:53 AM,19.0,12.0,74,30.14,10.0,ESE,18.4,-,N/A,,Clear,110,2013-03-06 17:53:00
11:53 AM,19.9,12.9,74,30.09,10.0,East,19.6,-,N/A,,Clear,100,2013-03-06 18:53:00
12:53 PM,21.9,15.1,75,30.05,10.0,East,19.6,-,N/A,,Clear,100,2013-03-06 19:53:00
1:53 PM,23.0,16.0,74,30.02,10.0,ESE,21.9,-,N/A,,Clear,110,2013-03-06 20:53:00
2:53 PM,25.0,17.1,72,30.00,10.0,East,24.2,28.8,N/A,,Clear,100,2013-03-06 21:53:00
3:53 PM,25.0,18.0,75,29.98,10.0,ESE,21.9,28.8,N/A,,Clear,110,2013-03-06 22:53:00
4:53 PM,24.1,19.0,81,29.98,10.0,ESE,19.6,25.3,N/A,,Partly Cloudy,110,2013-03-06 23:53:00
5:53 PM,24.1,19.0,81,29.97,10.0,East,19.6,-,N/A,,Scattered Clouds,100,2013-03-07 00:53:00
6:53 PM,24.1,19.0,81,29.97,10.0,ESE,17.3,-,N/A,,Mostly Cloudy,110,2013-03-07 01:53:00
7:53 PM,25.0,21.0,85,29.96,10.0,ESE,18.4,28.8,N/A,,Overcast,110,2013-03-07 02:53:00
8:53 PM,25.0,19.9,81,29.94,10.0,East,20.7,-,N/A,,Overcast,100,2013-03-07 03:53:00
9:53 PM,25.0,19.9,81,29.95,10.0,ESE,19.6,-,N/A,,Overcast,110,2013-03-07 04:53:00
10:53 PM,25.0,19.9,81,29.94,10.0,ESE,16.1,-,N/A,,Overcast,110,2013-03-07 05:53:00
11:53 PM,23.0,19.0,85,29.92,10.0,ESE,17.3,-,N/A,,Partly Cloudy,110,2013-03-07 06:53:00